Flag for Canada Weather past 2 weeks in Yorkton, Saskatchewan, Canada

Now
59 °F

Scattered clouds.


Feels Like: 56 °F
Forecast: 47 / 70 °F
Wind: 15 mph from North

Location: Yorkton

Current Time: Jul 7, 2015 at 9:22:34 PM

Latest Report: Jul 7, 2015 at 8:45 PM


Visibility: 2 mi

Pressure: 29.95 "Hg (28.21 "Hg at 505m altitude)

Humidity: 82%

Dew point: 54 °F

Location of YorktonLocation

Historic Weather in Yorkton — Graph

°F

Yorkton temperature yesterday

Maximum temperature yesterday: 70 °F (at 6:00 PM)
Minimum temperature yesterday: 43 °F (at 4:00 AM)
Average temperature yesterday: 58 °F

Past Weeks' High & Low Weather Summary

 TemperatureHumidityPressure
High84 °F (Jun 26, 2:00 PM)100% (Jun 24, 5:00 AM)30.23 "Hg (Jun 24, 5:00 AM)
Low43 °F (Jul 6, 4:00 AM)31% (Jun 26, 2:00 PM)29.72 "Hg (Jul 4, 10:46 AM)
Average66 °F72%29.97 "Hg
* Reported Jun 22 8:00 PM — Jul 7 8:00 PM, Yorkton, Weather by CustomWeather, © 2015

Note: Actual official high and low records may vary slightly from our data, if they occured in-between our weather recording intervals... More about our weather records

Advertising

Yorkton weather history for previous 24 hours

 ConditionsComfort  
Time TempWeatherWind HumidityBarometerVisibility
8:00 PM
Tue, Jul 7
63 °FSunny.3 mph83%29.93 "Hg9 mi
7:00 PM64 °FPassing clouds.2 mph68%29.92 "Hg9 mi
6:00 PM63 °FThunderstorms. Partly sunny.6 mph83%29.93 "Hg9 mi
5:04 PM70 °FThunderstorms. Broken clouds.6 mph64%29.90 "Hg9 mi
5:03 PM70 °FThundershowers. Broken clouds.3 mph60%29.90 "Hg9 mi
4:00 PM70 °FPartly sunny.5 mph53%29.93 "Hg9 mi
3:04 PM68 °FScattered clouds.12 mph49%29.95 "Hg9 mi
2:57 PM68 °FThundershowers. Passing clouds.10 mph46%29.94 "Hg9 mi
2:00 PM75 °FPassing clouds.15 mph41%29.93 "Hg9 mi
1:00 PM75 °FPassing clouds.16 mph47%29.96 "Hg9 mi
12:00 PM72 °FSunny.14 mph57%29.98 "Hg9 mi
11:00 AM72 °FScattered clouds.21 mph50%29.99 "Hg9 mi
10:00 AM70 °FSunny.15 mph53%30.00 "Hg9 mi
9:00 AM64 °FSunny.16 mph60%30.03 "Hg9 mi
8:00 AM61 °FSunny.13 mph63%30.05 "Hg9 mi
7:00 AM55 °FSunny.13 mph72%30.07 "Hg9 mi
6:00 AM52 °FSunny.9 mph82%30.08 "Hg9 mi
5:00 AM52 °FSunny.8 mph82%30.09 "Hg9 mi
4:00 AM54 °FClear.10 mph77%30.11 "Hg9 mi
3:00 AM52 °FClear.9 mph88%30.11 "Hg7 mi
2:00 AM52 °FFog.7 mph88%30.11 "Hg6 mi
1:00 AM54 °FClear.7 mph82%30.12 "Hg6 mi
12:00 AM55 °FPassing clouds.7 mph82%30.13 "Hg7 mi
11:00 PM
Mon, Jul 6
57 °FClear.6 mph77%30.13 "Hg8 mi
10:00 PM61 °FClear.7 mph68%30.14 "Hg9 mi
9:00 PM61 °FSunny.6 mph63%30.13 "Hg9 mi
Weather by CustomWeather, © 2015

See weather overviewHow to use our weather pages